Back to catalog

CubeBel-2

EU11S

AliveAmateur RadioSSO
NORAD 57175·PAYLOAD·🇧🇾 Belarus

Launched Jun 27, 2023 from Vostochny Cosmodrome

Loading…

Next Passes (next 24 hours)

TLE

FreshSource: AMSAT

Epoch: Sep 14, 2026, 12:18 UTC

1 57175U 23091K   26257.51318666  .00010084  00000-0  33796-3 0  9992
2 57175  97.4956 321.6116 0010154 151.2949 208.8853 15.31072605177963

Track CubeBel-2 in real time with AllMySat

Download on the App Store